[[{"header":{"parameterUnit":"m.s-1","parameterCategory":1,"la1":30.2991,"la2":30.254,"lo1":-89.0895,"lo2":-89.0444,"dy":0.0017,"dx":0.0017,"nx":28,"ny":28,"refTime":"2023-10-13T21:00:00:Z","depth":0,"parameterNumber":2,"parameterNumberName":"U-component_of_WINDS"},"data":[0,0,0,0,0,0,0,0,0,0,0,0,0,0,0,0,0,0,0,0,0,0,0,0,0,0,0,0,0,0,0,0,0,0,0,0,0,0,0,0,0,0,0,0,0,0,0,0,0,0,0,0,0,0,0,0,0,0,2.7236,2.7236,0,2.7245,2.7245,2.7245,2.7211,2.721,2.7209,2.7208,2.7216,2.7218,2.7219,0,0,0,0,0,0,0,0,0,0,0,0,0,2.7189,2.719,2.7236,2.7236,2.7236,2.7245,2.7245,2.7245,2.7211,2.721,2.7209,2.7208,2.7216,2.7217,2.7219,0,0,0,0,0,0,0,0,0,0,0,0,0,2.7205,2.719,2.7236,2.722,2.7219,2.7245,2.7245,2.7245,2.7212,2.721,2.7209,2.7207,2.7216,2.7217,2.7219,2.726,0,0,2.7224,2.7225,0,0,0,0,0,0,0,0,2.7204,2.7206,2.7222,2.7221,2.722,2.7225,2.7231,2.725,2.7212,2.7214,2.7208,2.7206,2.7221,2.7222,2.7227,2.726,2.7261,2.7224,2.7225,2.7226,2.7227,0,0,0,0,0,0,0,2.7203,2.7206,2.7239,2.7223,2.7221,2.7213,2.7213,2.7235,2.7226,2.7214,2.7212,2.7213,2.722,2.7225,2.7227,2.7261,2.7224,2.7226,2.7227,2.7228,2.7329,2.733,0,0,0,0,0,0,2.7204,2.7205,2.7239,2.7239,2.7208,2.7215,2.7215,2.7225,2.7225,2.7224,2.7214,2.7212,2.7223,2.7225,2.7227,2.7274,2.7226,2.7228,2.7229,2.7327,2.7329,2.7331,0,0,0,0,0,0,2.7203,2.7207,2.7238,2.7222,2.7225,2.7217,2.7228,2.7226,2.7231,2.7226,2.7224,2.7222,2.7222,2.7224,2.7252,2.7274,2.7229,2.723,2.7325,2.7328,2.733,2.737,0,0,0,0,0,0,2.7202,2.7207,2.7222,2.7222,2.7226,2.7264,2.723,2.7227,2.7235,2.7231,2.7232,2.7231,2.7221,2.725,2.7254,2.7276,2.7232,2.7323,2.7326,2.7329,2.7366,2.7373,2.7379,0,0,0,0,0,2.72,2.7233,2.7223,2.7227,2.7245,2.7265,2.7267,2.7255,2.7237,2.7252,2.7248,2.7231,2.7272,2.7253,2.7257,2.728,2.7321,2.7325,2.7329,2.7364,2.7372,2.7379,0,0,0,0,0,0,2.7234,2.7232,2.7222,2.7255,2.7261,2.7259,2.7278,2.7264,2.7275,2.7271,2.7255,2.7256,2.7286,2.7286,2.7265,2.732,2.7293,2.7298,2.7318,2.7326,2.7333,2.7331,2.7233,0,0,0,0,0,2.7246,2.7263,2.726,2.729,2.7293,2.7286,2.7294,2.7284,2.7289,2.7291,2.7289,2.7294,2.7308,2.7317,2.733,2.7367,2.7367,2.7385,2.7392,2.7397,2.74,2.742,2.7428,2.7343,2.7343,2.7343,0,0,2.727,2.7271,2.7282,2.7297,2.73,2.7317,2.7287,2.7307,2.7319,2.7294,2.7319,2.7319,2.7323,2.7356,2.737,2.7357,2.7424,2.7402,2.7406,2.7407,2.7425,2.7433,2.744,2.7345,2.7345,2.7344,0,0,2.7322,2.7325,2.735,2.7354,2.736,2.7355,2.7361,2.7362,2.7361,2.7387,2.7368,2.7383,2.7407,2.7411,2.7416,2.7473,2.7457,2.7477,2.751,2.7529,2.7536,2.7542,2.7561,2.7568,2.7481,2.7482,2.7482,0,2.7351,2.7376,2.7365,2.7386,2.7393,2.7372,2.7397,2.7402,2.7411,2.7416,2.7401,2.7432,2.7434,2.7467,2.7481,2.7486,2.7492,2.7476,2.7536,2.7542,2.7547,2.7565,2.7572,2.7484,2.7484,2.7483,2.7483,0,2.7411,2.7429,2.7449,2.7459,2.7469,2.7492,2.7484,2.7495,2.7486,2.7482,2.7509,2.7511,2.7524,2.7531,2.7522,2.7564,2.7555,2.7539,2.7511,2.7558,2.7574,2.7581,2.7487,2.7486,2.7486,2.7485,0,0,2.7483,2.7488,2.7495,2.7499,2.7505,2.7518,2.7541,2.7554,2.7564,2.7572,2.759,2.7612,2.7597,2.7603,2.7595,2.7612,2.7655,2.7593,2.7593,2.7603,2.7701,2.7712,2.772,2.7646,2.7647,2.7648,2.77,0,2.7533,2.7572,2.7563,2.7601,2.7618,2.7599,2.7619,2.7624,2.7622,2.7636,2.7634,2.7649,2.7629,2.7633,2.7649,2.7647,2.7674,2.7643,2.7662,2.7662,2.7659,2.7729,2.774,2.7789,2.7706,2.7708,2.7708,0,2.7596,2.7607,2.7647,2.765,2.7657,2.7675,2.7687,2.77,2.7707,2.7704,2.7712,2.77,2.7723,2.7697,2.7728,2.7707,2.7714,2.7715,2.7716,2.7716,2.7687,2.7729,2.7804,2.7811,2.7719,2.7718,2.7717,0,2.7643,2.7668,2.7695,2.7699,2.7705,2.7718,2.772,2.7725,2.7734,2.7744,2.775,2.7763,2.7769,2.778,2.7772,2.7754,2.7804,2.7778,2.7801,2.7802,2.7811,2.781,2.7887,2.7819,2.7819,2.7819,2.7818,0,2.7699,2.7723,2.7716,2.7732,2.776,2.775,2.7778,2.7779,2.7783,2.78,2.7785,2.78,2.779,2.7805,2.7799,2.7825,2.7829,2.7827,2.7825,2.7827,2.7827,2.783,2.7826,2.7821,2.782,2.782,2.7819,0,2.7754,2.775,2.7779,2.7782,2.7783,2.7803,2.7806,2.7821,2.782,2.784,2.7845,2.7841,2.7858,2.7852,2.787,2.7866,2.7899,2.7893,2.7896,2.7894,2.7918,2.7915,2.7998,2.8008,2.7935,2.7936,2.7937,0,2.7789,2.7808,2.7814,2.7824,2.7828,2.7845,2.7854,2.7846,2.7856,2.7866,2.788,2.7896,2.7907,2.7935,2.7934,2.7948,2.7941,2.7969,2.7943,2.7945,2.794,2.7938,2.794,2.7974,2.7975,2.7975,2.7976,0,2.7851,2.7849,2.7863,2.7877,2.7888,2.7899,2.7908,2.7917,2.791,2.7922,2.7939,2.7949,2.7968,2.7983,2.7996,2.7998,2.7986,2.7985,2.7991,2.7992,2.7993,2.7992,2.7909,2.7982,2.7982,2.7981,2.7981,2.798,2.7896,2.7912,2.7919,2.7936,2.7942,2.7951,2.7966,2.7967,2.7981,2.7996,2.7991,2.8011,2.8017,2.8033,2.8038,2.8053,2.8042,2.8051,2.8053,2.8055,2.8058,2.7993,2.8056,2.8056,2.8056,2.8055,2.8055,0,2.7957,2.7961,2.7976,2.799,2.8003,2.7992,2.8001,2.8013,2.8031,2.8039,2.8051,2.8071,2.8087,2.8088,2.8102,2.8115,2.8109,2.8119,2.8116,2.8117,2.8067,2.806,2.8123,2.8123,2.8123,2.8123,2.8123,2.8123,2.7989,2.8016,2.8014,2.8044,2.8048,2.8068,2.8074,2.8083,2.8089,2.8112,2.8126,2.8127,2.8132,2.8147,2.8161,2.8161,2.8166,2.8177,2.8175,2.8128,2.8121,2.8114,2.8107,2.8179,2.8179,2.8223,2.8224,2.8224]},{"header":{"parameterUnit":"m.s-1","parameterCategory":1,"la1":30.2991,"la2":30.254,"lo1":-89.0895,"lo2":-89.0444,"dy":0.0017,"dx":0.0017,"nx":28,"ny":28,"refTime":"2023-10-13T21:00:00:Z","depth":0,"parameterNumber":3,"parameterNumberName":"V-component_of_WINDS"},"data":[0,0,0,0,0,0,0,0,0,0,0,0,0,0,0,0,0,0,0,0,0,0,0,0,0,0,0,0,0,0,0,0,0,0,0,0,0,0,0,0,0,0,0,0,0,0,0,0,0,0,0,0,0,0,0,0,0,0,-5.986,-5.9862,0,-6.0057,-6.0059,-6.0061,-6.001,-6.0006,-6.0003,-5.9999,-6.0194,-6.0202,-6.0211,0,0,0,0,0,0,0,0,0,0,0,0,0,-5.9435,-5.9443,-5.986,-5.9862,-5.9865,-6.0056,-6.0059,-6.0062,-6.0011,-6.0006,-6.0002,-5.9997,-6.0191,-6.0201,-6.0212,0,0,0,0,0,0,0,0,0,0,0,0,0,-5.9624,-5.9446,-5.9859,-5.9863,-5.9865,-6.0056,-6.0059,-6.0062,-6.0012,-6.0006,-6.0,-5.9995,-6.0187,-6.02,-6.0213,-6.0411,0,0,-6.0253,-6.0259,0,0,0,0,0,0,0,0,-5.9614,-5.964,-5.986,-5.9863,-5.9866,-6.0003,-5.9981,-6.0179,-6.0014,-5.9956,-5.9999,-5.9992,-6.0135,-6.0152,-6.0201,-6.042,-6.0428,-6.0255,-6.0263,-6.0268,-6.0272,0,0,0,0,0,0,0,-5.9601,-5.9631,-5.9938,-5.9863,-5.9867,-5.9853,-5.9873,-6.0018,-6.0075,-5.9961,-5.9957,-5.9982,-6.0135,-6.0189,-6.0205,-6.0431,-6.0254,-6.0266,-6.0274,-6.0279,-6.0822,-6.0829,0,0,0,0,0,0,-5.9586,-5.962,-5.9931,-5.9943,-5.9723,-5.9865,-5.9888,-5.9965,-6.0074,-6.0085,-5.9987,-5.9979,-6.0169,-6.019,-6.0212,-6.0452,-6.0268,-6.028,-6.0288,-6.0816,-6.0824,-6.0831,0,0,0,0,0,0,-5.9577,-5.9614,-5.9923,-5.9781,-5.982,-5.9879,-5.9965,-5.9972,-6.0025,-6.0093,-6.0102,-6.0031,-6.0165,-6.0193,-6.0362,-6.0457,-6.0286,-6.0298,-6.0808,-6.0818,-6.0827,-6.0932,0,0,0,0,0,0,-5.9565,-5.9611,-5.9688,-5.9784,-5.9828,-6.0073,-5.9971,-5.998,-6.0049,-6.0041,-6.0138,-6.0148,-6.0163,-6.0343,-6.0376,-6.0473,-6.0309,-6.08,-6.0813,-6.0824,-6.092,-6.0944,-6.0964,0,0,0,0,0,-5.955,-5.9708,-5.9692,-5.973,-5.9925,-6.0078,-6.0103,-6.0119,-6.0057,-6.0134,-6.0178,-6.0145,-6.0442,-6.0361,-6.0397,-6.0499,-6.0794,-6.0809,-6.0823,-6.091,-6.0939,-6.0964,0,0,0,0,0,0,-5.962,-5.972,-5.9704,-5.9898,-5.9981,-6.0069,-6.0167,-6.0149,-6.0249,-6.0236,-6.0249,-6.0272,-6.0445,-6.0488,-6.0397,-6.0697,-6.0609,-6.0631,-6.0662,-6.069,-6.0712,-6.0698,-6.032,0,0,0,0,0,-5.9658,-5.9776,-5.9856,-6.002,-6.0062,-6.0108,-6.0175,-6.018,-6.0265,-6.0299,-6.0355,-6.0436,-6.0548,-6.0621,-6.0728,-6.0926,-6.0946,-6.1014,-6.1036,-6.1054,-6.1073,-6.1182,-6.1213,-6.0879,-6.0879,-6.0879,0,0,-5.9737,-5.9807,-5.988,-6.0036,-6.01,-6.022,-6.0137,-6.0268,-6.0357,-6.0318,-6.0482,-6.0526,-6.0618,-6.0803,-6.0887,-6.0844,-6.117,-6.1072,-6.1086,-6.1096,-6.12,-6.1232,-6.126,-6.0889,-6.0887,-6.0886,0,0,-5.9944,-6.0009,-6.0153,-6.022,-6.0319,-6.0349,-6.0383,-6.0476,-6.0505,-6.067,-6.0644,-6.0748,-6.094,-6.1008,-6.1067,-6.1301,-6.1274,-6.1335,-6.145,-6.1556,-6.1583,-6.1606,-6.169,-6.172,-6.1354,-6.1354,-6.1354,0,-6.003,-6.0213,-6.0228,-6.0363,-6.0432,-6.0405,-6.055,-6.0613,-6.0741,-6.0789,-6.074,-6.0982,-6.1041,-6.1242,-6.13,-6.1348,-6.1387,-6.1324,-6.1578,-6.1602,-6.1624,-6.1704,-6.1736,-6.1361,-6.136,-6.1359,-6.1359,0,-6.0314,-6.0441,-6.0544,-6.0672,-6.0753,-6.0891,-6.0927,-6.1006,-6.1005,-6.1039,-6.1207,-6.1279,-6.14,-6.1447,-6.1446,-6.1649,-6.1619,-6.1574,-6.1486,-6.1662,-6.1738,-6.1769,-6.1371,-6.1368,-6.1366,-6.1364,0,0,-6.057,-6.0706,-6.0744,-6.0802,-6.0911,-6.1008,-6.1145,-6.1266,-6.1334,-6.1423,-6.1538,-6.1702,-6.1662,-6.1729,-6.1735,-6.1828,-6.201,-6.1771,-6.1774,-6.1814,-6.2238,-6.2272,-6.2308,-6.1993,-6.1999,-6.2003,-6.2231,0,-6.0787,-6.1032,-6.1051,-6.127,-6.1388,-6.1364,-6.1483,-6.1562,-6.1598,-6.1701,-6.1739,-6.1856,-6.1793,-6.1834,-6.1925,-6.1969,-6.2095,-6.1952,-6.2099,-6.2104,-6.2078,-6.2348,-6.2384,-6.2595,-6.2261,-6.2266,-6.2269,0,-6.1074,-6.1175,-6.1407,-6.1501,-6.155,-6.1658,-6.1771,-6.187,-6.1958,-6.1978,-6.2054,-6.2047,-6.2187,-6.2094,-6.2286,-6.2188,-6.2249,-6.228,-6.2288,-6.2303,-6.2198,-6.237,-6.2663,-6.2695,-6.2316,-6.2312,-6.2309,0,-6.1239,-6.1433,-6.1597,-6.1647,-6.176,-6.1836,-6.1886,-6.1969,-6.2041,-6.2138,-6.2185,-6.2297,-6.2358,-6.2444,-6.2467,-6.2397,-6.266,-6.2568,-6.2679,-6.2679,-6.2736,-6.2732,-6.3043,-6.2774,-6.2773,-6.2772,-6.2772,0,-6.148,-6.1624,-6.1673,-6.1775,-6.1934,-6.1953,-6.211,-6.2155,-6.2229,-6.2338,-6.2323,-6.2424,-6.2448,-6.2554,-6.2573,-6.273,-6.2757,-6.2776,-6.2779,-6.2778,-6.2776,-6.2819,-6.2805,-6.2781,-6.2779,-6.2777,-6.2776,0,-6.1692,-6.1731,-6.1909,-6.2002,-6.2028,-6.2142,-6.222,-6.2317,-6.2351,-6.2489,-6.2522,-6.2575,-6.2699,-6.2731,-6.2878,-6.289,-6.3076,-6.3065,-6.3047,-6.3047,-6.3157,-6.3147,-6.3507,-6.3556,-6.3254,-6.3256,-6.3259,0,-6.1844,-6.1955,-6.206,-6.2133,-6.2187,-6.2304,-6.2378,-6.2401,-6.2478,-6.2588,-6.2672,-6.2794,-6.2894,-6.3093,-6.3144,-6.3256,-6.3248,-6.3367,-6.3265,-6.3261,-6.3251,-6.3245,-6.3256,-6.3386,-6.3389,-6.3392,-6.3394,0,-6.2111,-6.2125,-6.2234,-6.235,-6.244,-6.2532,-6.2619,-6.2679,-6.2714,-6.2802,-6.293,-6.3008,-6.316,-6.3282,-6.3396,-6.3445,-6.3426,-6.3426,-6.3458,-6.3458,-6.3444,-6.3455,-6.3101,-6.3418,-6.3415,-6.3414,-6.3412,-6.3411,-6.2298,-6.2396,-6.2486,-6.2607,-6.2676,-6.2759,-6.2856,-6.2903,-6.3011,-6.3138,-6.3144,-6.3284,-6.3369,-6.3521,-6.3577,-6.3685,-6.3649,-6.3695,-6.3707,-6.3718,-6.3728,-6.3427,-6.3705,-6.3705,-6.3704,-6.3704,-6.3703,0,-6.2565,-6.2622,-6.2734,-6.2859,-6.2955,-6.293,-6.3027,-6.3108,-6.3232,-6.3314,-6.3414,-6.3561,-6.368,-6.374,-6.3858,-6.3933,-6.3927,-6.3963,-6.3958,-6.397,-6.3753,-6.3715,-6.3966,-6.3966,-6.3966,-6.3966,-6.3965,-6.3965,-6.2715,-6.2879,-6.2904,-6.3102,-6.3157,-6.3296,-6.3353,-6.3429,-6.3496,-6.3662,-6.3762,-6.3801,-6.3875,-6.3998,-6.4105,-6.412,-6.4164,-6.4205,-6.4215,-6.4011,-6.3985,-6.3959,-6.3923,-6.4214,-6.4214,-6.4422,-6.4424,-6.4426]}]]